Location: Gleizolles
(44.4833°N, 6.7667°E)
Time: 04:08:32
(UTC+00:00)

Vanguard 1 Rocket - Pass Details

Date: 23 June 2024
Orbit: 650 x 4219 km, 34.3° (Epoch: 15 July)

Event Time Altitude Azimuth Distance (km) Brightness Sun altitude
Rises 09:30:24 0° 280° (W) 8,398 12.0 57.0°
Reaches altitude 10° 09:41:50 10° 259° (W) 7,388 11.9 58.7°
Maximum altitude 09:50:40 13° 238° (WSW) 6,850 11.9 60.0°
Drops below altitude 10° 09:58:49 10° 217° (SW) 6,659 11.9 61.2°
Sets 10:08:01 0° 193° (SSW) 6,914 12.1 62.4°
